TimeEDT,TemperatureF,Dew PointF,Humidity,Sea Level PressureIn,VisibilityMPH,Wind Direction,Wind SpeedMPH,Gust SpeedMPH,PrecipitationIn,Events,Conditions,WindDirDegrees,DateUTC
12:25 AM,62.6,60.8,94,30.11,2.0,Calm,Calm,-,N/A,,Clear,0,2013-09-09 04:25:00
12:35 AM,60.8,60.8,100,30.11,4.0,Calm,Calm,-,N/A,,Clear,0,2013-09-09 04:35:00
12:46 AM,62.6,60.8,94,30.12,5.0,Calm,Calm,-,N/A,,Scattered Clouds,0,2013-09-09 04:46:00
12:51 AM,61.0,59.0,93,30.09,2.0,Calm,Calm,-,N/A,,Mostly Cloudy,0,2013-09-09 04:51:00
12:54 AM,60.8,60.8,100,30.12,0.8,Calm,Calm,-,N/A,,Mist,0,2013-09-09 04:54:00
1:06 AM,62.6,60.8,94,30.12,0.2,Calm,Calm,-,N/A,Fog,Fog,0,2013-09-09 05:06:00
1:19 AM,62.6,60.8,94,30.12,0.5,Calm,Calm,-,N/A,Fog,Fog,0,2013-09-09 05:19:00
1:29 AM,62.6,60.8,94,30.12,1.5,Calm,Calm,-,N/A,,Overcast,0,2013-09-09 05:29:00
1:34 AM,62.6,60.8,94,30.12,3.0,Calm,Calm,-,N/A,,Overcast,0,2013-09-09 05:34:00
1:39 AM,62.6,60.8,94,30.12,1.5,Calm,Calm,-,N/A,,Overcast,0,2013-09-09 05:39:00
1:49 AM,62.6,60.8,94,30.12,0.5,Calm,Calm,-,N/A,Fog,Fog,0,2013-09-09 05:49:00
1:51 AM,63.0,61.0,93,30.09,0.5,Calm,Calm,-,N/A,Fog,Fog,0,2013-09-09 05:51:00
2:51 AM,63.0,62.1,97,30.09,0.8,Calm,Calm,-,N/A,,Mist,0,2013-09-09 06:51:00
3:51 AM,63.0,62.1,97,30.10,1.0,Calm,Calm,-,N/A,,Mist,0,2013-09-09 07:51:00
4:44 AM,62.6,60.8,94,30.14,0.8,Calm,Calm,-,N/A,,Mist,0,2013-09-09 08:44:00
4:51 AM,62.1,61.0,96,30.11,0.8,Calm,Calm,-,N/A,,Mist,0,2013-09-09 08:51:00
5:00 AM,62.6,60.8,94,30.14,1.2,Calm,Calm,-,N/A,,Overcast,0,2013-09-09 09:00:00
5:51 AM,61.0,60.1,97,30.13,0.8,Calm,Calm,-,N/A,,Mist,0,2013-09-09 09:51:00
6:19 AM,62.6,60.8,94,30.16,1.0,Calm,Calm,-,N/A,,Mist,0,2013-09-09 10:19:00
6:27 AM,62.6,60.8,94,30.16,0.8,SE,3.5,-,N/A,,Mist,140,2013-09-09 10:27:00
6:51 AM,62.1,60.1,93,30.15,0.8,West,3.5,-,N/A,,Mist,260,2013-09-09 10:51:00
7:15 AM,62.6,60.8,94,30.18,0.2,Calm,Calm,-,N/A,Fog,Fog,0,2013-09-09 11:15:00
7:24 AM,60.8,60.8,100,30.18,0.5,Calm,Calm,-,N/A,Fog,Fog,0,2013-09-09 11:24:00
7:51 AM,61.0,60.1,97,30.17,1.0,Calm,Calm,-,N/A,,Mist,0,2013-09-09 11:51:00
7:58 AM,60.8,60.8,100,30.18,0.5,Calm,Calm,-,N/A,Fog,Fog,0,2013-09-09 11:58:00
8:24 AM,60.8,60.8,100,30.18,1.2,Calm,Calm,-,N/A,,Overcast,0,2013-09-09 12:24:00
8:51 AM,62.1,60.1,93,30.17,2.0,Calm,Calm,-,N/A,,Overcast,0,2013-09-09 12:51:00
9:00 AM,62.6,60.8,94,30.18,1.5,Calm,Calm,-,N/A,,Overcast,0,2013-09-09 13:00:00
9:16 AM,62.6,62.6,100,30.19,2.0,Calm,Calm,-,N/A,,Overcast,0,2013-09-09 13:16:00
9:33 AM,64.4,60.8,88,30.19,5.0,Calm,Calm,-,N/A,,Mostly Cloudy,0,2013-09-09 13:33:00
9:51 AM,64.0,62.1,93,30.18,4.0,Calm,Calm,-,N/A,,Overcast,0,2013-09-09 13:51:00
10:30 AM,66.2,62.6,88,30.19,9.0,WNW,3.5,-,N/A,,Partly Cloudy,300,2013-09-09 14:30:00
10:51 AM,72.0,64.0,76,30.17,10.0,Calm,Calm,-,N/A,,Clear,0,2013-09-09 14:51:00
11:51 AM,77.0,64.0,64,30.16,10.0,Variable,4.6,-,N/A,,Clear,0,2013-09-09 15:51:00
12:51 PM,79.0,64.0,60,30.14,10.0,SSW,3.5,-,N/A,,Clear,210,2013-09-09 16:51:00
1:51 PM,81.0,64.0,56,30.13,10.0,South,3.5,-,N/A,,Mostly Cloudy,180,2013-09-09 17:51:00
2:51 PM,81.0,62.1,52,30.12,10.0,Calm,Calm,-,N/A,,Scattered Clouds,0,2013-09-09 18:51:00
3:51 PM,81.0,63.0,54,30.10,10.0,South,3.5,-,N/A,,Scattered Clouds,190,2013-09-09 19:51:00
4:51 PM,81.0,64.9,58,30.09,10.0,Calm,Calm,-,N/A,,Mostly Cloudy,0,2013-09-09 20:51:00
5:51 PM,79.0,64.9,62,30.09,10.0,SSW,4.6,-,N/A,,Scattered Clouds,200,2013-09-09 21:51:00
6:51 PM,79.0,64.0,60,30.09,10.0,South,4.6,-,N/A,,Clear,170,2013-09-09 22:51:00
7:51 PM,73.0,64.0,73,30.13,10.0,Calm,Calm,-,N/A,,Clear,0,2013-09-09 23:51:00
8:51 PM,69.1,64.0,84,30.15,10.0,Calm,Calm,-,N/A,,Clear,0,2013-09-10 00:51:00
9:51 PM,70.0,63.0,78,30.16,10.0,SSE,5.8,-,N/A,,Clear,160,2013-09-10 01:51:00
10:51 PM,70.0,63.0,78,30.15,10.0,SE,5.8,-,N/A,,Clear,140,2013-09-10 02:51:00
11:51 PM,71.1,63.0,75,30.14,10.0,South,3.5,-,N/A,,Clear,170,2013-09-10 03:51:00